Fort Worth Alliance, TX

12:12 PM CDT on August 21, 2017 (GMT -0500)
Fort Worth Alliance

Weather History for KAFW - January, 2013

Change the Weather History Date:

Thursday, January 24, 2013

  Actual Average Record
Temperature  
Mean Temperature 64 °F -  
Max Temperature 81 °F 55 °F 81 °F (2013)
Min Temperature 46 °F 33 °F 15 °F (2014)
Degree Days  
Heating Degree Days 2    
Growing Degree Days 14 (Base 50)    
Moisture  
Dew Point 49 °F    
Average Humidity 68    
Maximum Humidity 96    
Minimum Humidity 35    
Precipitation  
Precipitation 0.00 in - - ()
Sea Level Pressure  
Sea Level Pressure 30.09 in    
Wind  
Wind Speed 6 mph (West)    
Max Wind Speed 14 mph    
Max Gust Speed 17 mph    
Visibility 9 miles    
Events      
Averages and records for this station are not official NWS values.
T = Trace of Precipitation, MM = Missing Value Source: NWS Daily Summary

Daily Weather History Graph

Daily Weather History Graph

Search for Another Location

Airport or City:

Trip Planner

Search our weather history database for the weather conditions in past years. The results will help you decide how hot, cold, wet, or windy it might be!

Date:

Astronomy

Jan. 24, 2013 Rise Set
Actual Time 7:29 AM CST 5:54 PM CST
Civil Twilight 7:02 AM CST 6:20 PM CST
Nautical Twilight 6:32 AM CST 6:50 PM CST
Astronomical Twilight 6:03 AM CST 7:19 PM CST
Moon 3:59 PM CST (1/24) 5:25 AM CST (1/24)
Length of Visible Light 11h 17m
Length of Day
10h 25m
Waxing Gibbous, 94% of the Moon is Illuminated
Jan 24
Waxing Gibbous
Jan 26
Full
Feb 3
Last Quarter
Feb 10
New
Feb 17
First Quarter

Hourly Weather History & Observations

Time (CST) Temp. Dew Point Humidity Pressure Visibility Wind Dir Wind Speed Gust Speed Precip Events Conditions
12:53 AM 60.1 °F 53.1 °F 78% 30.11 in 10.0 mi SSW 6.9 mph - N/A   Clear
1:53 AM 57.9 °F 53.1 °F 84% 30.12 in 10.0 mi SSW 6.9 mph - N/A   Clear
2:53 AM 55.9 °F 51.1 °F 84% 30.12 in 10.0 mi SW 3.5 mph - N/A   Clear
3:53 AM 53.1 °F 50.0 °F 89% 30.12 in 9.0 mi Calm Calm - N/A   Clear
4:53 AM 52.0 °F 50.0 °F 93% 30.12 in 9.0 mi South 4.6 mph - N/A   Clear
5:53 AM 53.1 °F 50.0 °F 89% 30.13 in 9.0 mi South 4.6 mph - N/A   Clear
6:53 AM 52.0 °F 50.0 °F 93% 30.14 in 9.0 mi Calm Calm - N/A   Clear
7:53 AM 50.0 °F 48.9 °F 96% 30.16 in 5.0 mi Calm Calm - N/A   Clear
8:53 AM 55.9 °F 54.0 °F 93% 30.15 in 5.0 mi South 5.8 mph - N/A   Clear
9:53 AM 62.1 °F 54.0 °F 75% 30.15 in 7.0 mi South 6.9 mph - N/A   Clear
10:53 AM 66.9 °F 55.0 °F 66% 30.15 in 9.0 mi South 6.9 mph - N/A   Clear
11:53 AM 73.0 °F 55.0 °F 53% 30.12 in 10.0 mi Variable 3.5 mph - N/A   Clear
12:53 PM 77.0 °F 54.0 °F 45% 30.08 in 10.0 mi WSW 8.1 mph - N/A   Clear
1:53 PM 80.1 °F 52.0 °F 38% 30.05 in 10.0 mi WSW 10.4 mph - N/A   Clear
2:53 PM 81.0 °F 51.1 °F 35% 30.02 in 10.0 mi SW 10.4 mph 17.3 mph N/A   Clear
3:46 PM 78.8 °F 50.0 °F 36% 30.04 in 10.0 mi NNW 12.7 mph - N/A   Partly Cloudy
3:53 PM 75.9 °F 48.9 °F 38% 30.02 in 10.0 mi NW 13.8 mph - N/A   Partly Cloudy
4:53 PM 70.0 °F 46.9 °F 44% 30.04 in 10.0 mi NNW 11.5 mph - N/A   Partly Cloudy
5:53 PM 64.0 °F 46.9 °F 54% 30.04 in 10.0 mi NNW 8.1 mph - N/A   Clear
6:53 PM 59.0 °F 46.0 °F 62% 30.06 in 10.0 mi NNW 6.9 mph - N/A   Clear
7:53 PM 54.0 °F 44.1 °F 69% 30.07 in 10.0 mi NNW 5.8 mph - N/A   Clear
8:53 PM 53.1 °F 43.0 °F 69% 30.06 in 10.0 mi NW 4.6 mph - N/A   Clear
9:53 PM 51.1 °F 41.0 °F 68% 30.05 in 10.0 mi NNW 3.5 mph - N/A   Clear
10:53 PM 46.0 °F 39.9 °F 79% 30.04 in 10.0 mi Calm Calm - N/A   Clear
11:53 PM 48.9 °F 39.9 °F 71% 30.05 in 10.0 mi NW 5.8 mph - N/A   Clear